COSMOS 970 DEB, 64978

Orbit data source: Space-Track

COSMOS 970 DEB, 64978 is space debris in LEO originally from a launch on Wed, 21 Dec 1977 UTC launched from the Tyuratam Missile And Space Complex (TTMTR). Debris objects in space refer to the collection of defunct objects orbiting the Earth. Examples of debris include non-operational satellites, rocket bodies, and fragments generated from explosions, collisions, or faulty payload assembly.

Loading next visibility...
Identifier
64978, 1977-121CP
Orbit
LEO
Country
Flag of CISCIS
Related business
Manufacturer
Unknown
Mission
Spacecraft
Bus & Motor
Unknown
Mass
Unknown
Launch date (UTC)
1977-12-21 (48 years ago)
Launch vehicle
Unknown
Launch site
Tyuratam Missile And Space Complex (TTMTR)
Object type
Payload
Rocket body
Debris
Shape & HBR
Unknown shape, 0.1 m
Radar Cross Section
Small (<0.1 m²)

Expand to show TLE details & history
Last TLE update: 1 day ago

TLE from 1 day ago
0 COSMOS 970 DEB
1 64978U 77121CP  26170.89170199  .00001191  00000-0  85260-3 0  9998
2 64978  65.6456 344.3842 0092057 275.4542  83.6036 13.98942449617326
Epoch: 2026-06-19T21:24Z
TLE epoch observation values (Epoch: 2026-06-19T21:24:03.051Z)
Latitude
-0.00002°
Longitude
115.25731°
Altitude
892.601 km
Speed
7.41 km/s
True Right ascension
22h 57m 32s
True Declination
0° 00' 00"
Sunlit
Object was in daylight at epoch
Visualization orbit readout
Latitude
Unknown
Longitude
Unknown
Altitude
Unknown
Speed
Unknown
Apparent Right ascension
Unknown
Apparent Declination
Unknown
Sunlit
N/A
Visualization observer readout
Local Sidereal Time
08:32:53
Azimuth
Unknown
Elevation
Unknown
Doppler factor
Unknown
Orbital elements
Apogee altitude
962.945 km
Perigee altitude
829.018 km
Semi-major axis
7,274.119 km
Eccentricity
0.00921
Inclination
65.6456°
RAAN
344.3842°
Arg. of periapsis
275.4542°
True anomaly
84.65322°
Mean anomaly
83.6036°
Eccentric anomaly
84.12828°
Mean motion
3.49843 °/min
Orbital period
102.9 mins
BSTAR
0.0008526
Loading maneuver chart data...
Computing Atmospheric mass density...
Loading historical data...
Loading historical data...
Loading historical data...
Loading historical data...
Loading historical data...
Loading historical data...
Loading historical data...

Documentation

Showing up to 5 results
|